[Date Prev][Date Next][Thread Prev][Thread Next] - [Date Index][Thread Index][Author Index]

2 Line ISS Keps 8-4



ISS
1 25544U 98067A   04217.47034116  .00012808  00000-0  10662-3 0  3744
2 25544  51.6330  79.3366 0006251  82.0967 353.0496 15.70515885325904
----
Via the sarex mailing list at AMSAT.ORG courtesy of AMSAT-NA.
To unsubscribe, send "unsubscribe sarex" to Majordomo@amsat.org



AMSAT Top AMSAT Home